NB0X-13 Weather Reports


time (UTC)temp
F
wind
direction
speed
knots
gust
knots
rain 1hr
in
rain 24hr
in
rain mn
in
humidity
%
barometer
mb
20260502211114 47 27 2.6 4.3 0.00 0.01 0.01 72 1024.4
20260502210104 47 289 0.9 3.5 0.00 0.01 0.01 73 1024.5
20260502205054 46 237 1.7 4.3 0.00 0.01 0.01 79 1024.6
20260502204044 46 224 0.9 2.6 0.00 0.01 0.01 77 1024.6
20260502203034 45 222 2.6 2.6 0.00 0.01 0.01 83 1024.7
20260502202045 45 222 2.6 2.6 0.00 0.01 0.01 83 1024.7
20260502201115 45 323 2.6 3.5 0.00 0.01 0.01 83 1024.7
20260502200105 44 194 1.7 2.6 0.01 0.01 0.01 81 1024.6
20260502195055 45 342 3.5 8.7 0.01 0.01 0.01 79 1024.6
20260502194105 45 257 2.6 7.0 0.01 0.01 0.01 77 1024.7
20260502193056 44 324 2.6 9.6 0.01 0.01 0.01 80 1024.6
20260502192025 45 340 3.5 7.0 0.01 0.01 0.01 82 1024.4
20260502191116 45 312 1.7 5.2 0.01 0.01 0.01 78 1024.6
20260502190106 48 238 4.3 8.7 0.00 0.00 0.00 68 1024.4
20260502185056 50 227 1.7 3.5 0.00 0.00 0.00 60 1024.4
20260502184046 51 190 3.5 5.2 0.00 0.00 0.00 59 1024.5
20260502183037 51 46 2.6 6.1 0.00 0.00 0.00 59 1024.6
20260502182026 50 233 2.6 6.1 0.00 0.00 0.00 62 1024.6
20260502181016 51 183 2.6 5.2 0.00 0.00 0.00 61 1024.7
20260502180107 51 229 2.6 7.8 0.00 0.00 0.00 63 1024.7
20260502170108 48 4 3.5 7.0 0.00 0.00 0.00 70 1025.1
20260502164048 45 5 1.7 4.3 0.00 0.00 0.00 74 1025.1
20260502163038 46 178 1.7 3.5 0.00 0.00 0.00 74 1025.1
20260502162028 45 182 0.9 3.5 0.00 0.00 0.00 76 1025.0
20260502161038 45 171 2.6 4.3 0.00 0.00 0.00 78 1025.0
20260502160129 45 26 2.6 5.2 0.00 0.00 0.00 81 1024.9
20260502152029 41 26 3.5 5.2 0.00 0.00 0.00 88 1025.0
20260502151019 41 35 3.5 5.2 0.00 0.00 0.00 88 1024.9
20260502150110 41 34 2.6 5.2 0.00 0.00 0.00 86 1024.8
20260502140110 39 46 2.6 6.1 0.00 0.00 0.00 92 1024.7
20260502130111 38 32 1.7 3.5 0.00 0.00 0.00 96 1024.2
20260502123042 38 34 1.7 4.3 0.00 0.00 0.00 96 1023.8
20260502122032 38 47 2.6 3.5 0.00 0.00 0.00 96 1023.5
20260502121022 38 18 2.6 5.2 0.00 0.00 0.00 96 1023.6
20260502120113 38 28 2.6 5.2 0.00 0.00 0.00 96 1023.6
20260502115103 38 31 2.6 6.1 0.00 0.00 0.00 96 1023.4
20260502114052 38 61 1.7 4.3 0.00 0.00 0.00 96 1023.4
20260502113042 38 151 1.7 3.5 0.00 0.00 0.00 96 1023.3
20260502112052 38 42 1.7 3.5 0.00 0.00 0.00 96 1023.4
20260502111022 38 23 2.6 5.2 0.00 0.00 0.00 96 1023.3
20260502110113 38 30 1.7 3.5 0.00 0.00 0.00 96 1023.4
20260502105104 38 45 1.7 4.3 0.00 0.00 0.00 96 1023.3
20260502104054 38 26 1.7 4.3 0.00 0.00 0.00 96 1023.2
20260502103044 38 9 1.7 5.2 0.00 0.00 0.00 96 1023.2
20260502102034 38 83 0.9 3.5 0.00 0.00 0.00 96 1023.4
20260502101024 38 181 2.6 3.5 0.00 0.00 0.00 96 1023.5
20260502100115 38 122 0.0 4.3 0.00 0.00 0.00 96 1023.3
20260502091025 37 113 2.6 5.2 0.00 0.00 0.00 95 1023.2
20260502090116 37 151 2.6 5.2 0.00 0.00 0.00 95 1023.1
20260502071027 37 20 0.9 1.7 0.00 0.00 0.00 97 1023.3
20260502070017 37 136 0.9 2.6 0.00 0.00 0.00 97 1023.4
20260502065108 37 52 0.9 1.7 0.00 0.00 0.00 97 1023.3
20260502064058 37 62 0.9 3.5 0.00 0.00 0.00 97 1023.3
20260502063048 37 34 2.6 6.1 0.00 0.00 0.00 97 1023.4
20260502062038 37 51 1.7 3.5 0.00 0.00 0.00 97 1023.4
20260502061533 37 33 0.9 2.6 0.00 0.00 0.00 97 1023.4
20260502060543 37 68 0.9 1.7 0.00 0.00 0.00 97 1023.3
20260502055654 37 39 1.7 3.5 0.00 0.00 0.00 97 1023.5
20260502054604 0 0.0 0.0 0.00 0.00 0.00
20260502054059 0 0.0 0.0 0.00 0.00 0.00
20260502051028 37 37 1.7 2.6 0.00 0.00 0.00 98 1023.4
20260502050523 37 38 1.7 2.6 0.00 0.00 0.00 98